Regional Weather Roundup
Issued by NWS Wilmington, NC

Home | Current Version | Previous Version | Text Only | Print | Product List | Glossary On
Versions: 1 2 3 4 5 6 7 8 9 10 11 12 13 14 15 16 17 18 19 20 21 22 23 24 25 26 27 28 29 30 31 32 33 34 35 36 37 38 39 40 41 42 43 44 45 46 47 48 49 50
000
ASUS42 KILM 181610
RWRILM
RWRILM
REGIONAL HOURLY WEATHER ROUNDUP
NATIONAL WEATHER SERVICE WILMINGTON NC
1100 AM EST THU DEC 18 2014

NOTE: "FAIR" INDICATES FEW OR NO CLOUDS BELOW 12,000 FEET WITH NO
SIGNIFICANT WEATHER AND/OR OBSTRUCTIONS TO VISIBILITY.

...............WFO WILMINGTON COUNTY WARNING AREA...............

......COASTAL NC AND SC COUNTIES......

CITY           SKY/WX    TMP DP  RH WIND       PRES   REMARKS
WILMINGTON     SUNNY     52  29  41 NE8       30.17F
SOUTHPORT      SUNNY     52  30  43 NE7       30.18S
N MYRTLE BEACH SUNNY     52  30  43 NE10      30.18S
MYRTLE BEACH   SUNNY     54  34  47 N13       30.19S

......INLAND NC AND SC COUNTIES.......

CITY           SKY/WX    TMP DP  RH WIND       PRES   REMARKS
LUMBERTON      MOSUNNY   50  29  44 NE8       30.18F
ELIZABETHTOWN  MOSUNNY   49  30  49 N6        30.19S
WHITEVILLE     SUNNY     50  28  43 NE5       30.18F
FLORENCE       MOSUNNY   51  30  44 E9        30.19F
DARLINGTON     PTSUNNY   52  30  43 NE5       30.21S

....................REST OF NORTH CAROLINA......................

.........EASTERN NC.........

CITY           SKY/WX    TMP DP  RH WIND       PRES   REMARKS
CAPE HATTERAS  SUNNY     47  36  65 VRB7      30.16S
JACKSONVILLE   SUNNY     48  30  49 N9        30.19S
MOREHEAD CITY  SUNNY     49  35  58 NE12      30.17S
KENANSVILLE    MOSUNNY   46  29  52 N6        30.19F
NEW BERN       MOSUNNY   48  32  53 NE7       30.19F
ELIZABETH CITY SUNNY     48  29  47 N7        30.16F

.........CENTRAL NC.........

CITY           SKY/WX    TMP DP  RH WIND       PRES   REMARKS
RALEIGH DURHAM MOSUNNY   45  24  43 VRB6      30.18F
ROCKY MOUNT    SUNNY     44  29  55 VRB3      30.18F
ROANOKE RAPIDS NOT AVBL
FAYETTEVILLE   PTSUNNY   47  29  49 NE5       30.19S
HOFFMAN        PTSUNNY   46  29  50 VRB6      30.20F

.........WESTERN NC.........

CITY           SKY/WX    TMP DP  RH WIND       PRES   REMARKS
CHARLOTTE      CLOUDY    47  23  38 CALM      30.17F
GREENSBORO     PTSUNNY   46  23  40 N7        30.16S
HICKORY        NOT AVBL
BOONE          NOT AVBL
ASHEVILLE      NOT AVBL

.....................REST OF SOUTH CAROLINA.....................

.........EASTERN SC.........

CITY           SKY/WX    TMP DP  RH WIND       PRES   REMARKS
CHARLESTON     PTSUNNY   57  42  57 NE3       30.17S
BEAUFORT MCAS  PTSUNNY   52  43  71 CALM      30.17F
HILTON HEAD    MOSUNNY   50  43  76 CALM      30.19F

.........CENTRAL SC.........

CITY           SKY/WX    TMP DP  RH WIND       PRES   REMARKS
COLUMBIA       MOSUNNY   55  28  35 E12       30.18F
ORANGEBURG     SUNNY     53  37  54 E10       30.18S
SUMTER SHAW    SUNNY     53  30  40 NE10      30.18S

.........WESTERN SC.........

CITY           SKY/WX    TMP DP  RH WIND       PRES   REMARKS
GREENVILLE     NOT AVBL
ROCK HILL      PTSUNNY   47  27  45 E5        30.18F
ANDERSON       MOSUNNY   51  27  39 E7        30.17F
CLEMSON        NOT AVBL
GREENWOOD      MOSUNNY   50  32  50 VRB7      30.20S


...................COASTAL AND OFFSHORE REPORTS..................

................LOCAL PIERS AND NC RESERVE................


STATION/POSITION TIME  SKY/WX   TEMP    WIND        PRES    VSBY
                                AIR SEA DIR/SP/G
                 (UTC)          (F)     (DEG/KT/KT) (MB)    (MI)
JOHNY MRCER PIER 1600            48 57   50/  9/ 11 1021.0F
NC RESRV MASNBRO 1500            48      20/  6     1022.0S
OCEAN CREST PIER 1600            50 54  360/  8/ 11 1021.0R
SPRINGMAID  PIER 1600            49 53   40/ 12/ 14 1021.9F


................COASTAL AND OFFSHORE BUOYS................


STATION/POSITION TIME  SKY/WX   TEMP    WIND        PRES    VSBY
                                AIR SEA DIR/SP/G
                 (UTC)          (F)     (DEG/KT/KT) (MB)    (MI)
DIMNDSHOAL 41025 1600            49                 1021.3
WVE H/P(F/S)=  3/ 5

CAPE LOOKOUT     1500            47      20/ 11/ 14 1021.5R
ONSLOW BAY 41036 1500            50 61   30/ 12/ 14 1022.0R
5 WRITEBCH 41038 1500            48 55   50/ 14/ 17 1021.8R
MASONBORO  41110 1600               55                N/A
WVE H/P(F/S)=  2/ 4 WND WVE H/P(F/S)=  2/ 4

WILM HARBR 41108 1600               55                N/A
WVE H/P(F/S)=  2/ 4 WND WVE H/P(F/S)=  2/ 4

27WRITEBCH 41037 1500            50 62   60/ 12/ 14 1022.4R
FRYING PAN 41013 1600            55 64   40/ 12/ 14 1021.9R
WVE H/P(F/S)=  3/ 4 WND WVE H/P(F/S)=  3/ 4 SWL H/P/D(F/S/D)=  2/100/10

SUNST NRSH 41024 1500            50      60/ 12/ 14   N/A
CAPRS NRSH 41029 1500            55      40/  8/ 10   N/A
EDISTO     41004 1600            60 72  320/  4/  6 1021.2R
WVE H/P(F/S)=  1/10 SWL H/P/D(F/S/D)=  2/10



..........OFFSHORE BUOYS BEYOND 100 NM OFFSHORE...........
.....IN A TRIANGLE---HAT TO BERMUDA TO BAHAMAS TO HAT.....


STATION/POSITION TIME  SKY/WX   TEMP    WIND        PRES    VSBY
                                AIR SEA DIR/SP/G
                 (UTC)          (F)     (DEG/KT/KT) (MB)    (MI)
150E HAT   41001 NOT AVBL
W BERMUDA  41048 1531            70 73  280/ 16/ 19 1018.0F
WVE H/P(F/S)=  6/ 8 WND WVE H/P(F/S)=  3/ 5 SWL H/P/D(F/S/D)=  3/280/ 8

ATLANTIC S 41049 1547            75 78  290/  2/  6 1019.4F
WVE H/P(F/S)=  5/10 SWL H/P/D(F/S/D)=  5/ 50/10

E BAHAMAS  41046 1509            76 80   50/  6/ 10 1020.3F
WVE H/P(F/S)=  4/10 SWL H/P/D(F/S/D)=  3/ 50/10

NE BAHAMAS 41047 1515            75 78  300/ 10/ 12 1020.4F
WVE H/P(F/S)=  4/ 8 WND WVE H/P(F/S)=  2/ 4 SWL H/P/D(F/S/D)=  3/320/ 8

120E CANVRL41010 1600            72 76  280/ 12/ 16 1021.1F
WVE H/P(F/S)=  2/ 3 WND WVE H/P(F/S)=  2/ 3 SWL H/P/D(F/S/D)=  2/ 60/ 9


END


USA.gov is the U.S. government's official web portal to all federal, state and local government web resources and services.